Location: ???????
(38.3360°N, 23.6977°E)
Time: 05:09:41
(UTC+00:00)

BlueWalker 3 - Pass Details

Date: 17 November 2025
Orbit: 455 x 462 km, 53.2° (Epoch: 09 December)

Event Time Altitude Azimuth Distance (km) Brightness Sun altitude
Rises 17:10:03 0° 225° (SW) 2,472 6.2 -23.2°
Reaches altitude 10° 17:12:10 10° 224° (SW) 1,602 5.1 -23.7°
Enters shadow 17:14:39 42° 219° (SW) 673 2.8 -24.1°
